sat.trackr.live / text

‹ back to catalog

SXM-10

NORAD 64290 · 2025-122A

PAYLOAD ACTIVE UNKNOWN

§ Identity

Operator
Country
US
Launch date
2025-06-07
Launch site
AFETR
Launch vehicle
Mass (kg)
RCS (m²)

Purposes: comms

External: N2YO · Heavens-Above · Gunter

§ Orbital elements

Epoch: 2026-05-25T03:42:38.615040Z

Period
1,436.10 min
Inclination
0.0241°
Eccentricity
0.0001951
Mean motion
1.00271793 rev/d
Perigee alt
35,778.4 km
Apogee alt
35,794.8 km
Semi-major
42,164.7 km
B*
0.0000e+0
RAAN
26.3192°
Arg perigee
344.9177°
Mean anomaly
171.0079°
Rev number
345

§ Raw data

SXM-101 64290U 25122A   26145.15461360 -.00000019  00000+0  00000+0 0  99962 64290   0.0241  26.3192 0001951 344.9177 171.0079  1.00271793  3451

JSON: /api/v1/satellites/64290 · /tle

For live sub-satellite position, see the globe view (requires WebGL).

§ Visibility from observer

Set your observer location to see the next 7 days of passes ≥ 10°. The values pass through the URL so the page stays shareable.

No JS? Fill the form by hand. The geolocation button needs JavaScript.